����26�N�x�@��C��������Ԃɂ�鑪�茋��,,,,,,,,,,,,,,
,,,,,,,,,,,,,,
�P�@����n�_,,,,,,,,,,,,,,
���v��s�����i���v��s�����n���j,,,,,,,,,,,,,,
,,,,,,,,,,,,,,
�Q�@���Ԓl�i�m��l�j������26�N8��28���`����26�N9��19��,,,,,,,,,,,,,,
,,,,,,,,,,,,,,
,�N,��,��,��,SO2,SPM,Ox,CO,NO,NO2,���x,���x,����,����
,,,,,ppm,mg/m3,ppm,ppm,ppm,ppm,��,%,�P�U����,m/s
H02,2014,8,28,1,***,0.018,0.023,***,***,***,23.6,88,W,0.4
H02,2014,8,28,2,0,0.016,0.018,0.2,0.003,0.015,23.3,88.5,WSW,0.3
H02,2014,8,28,3,0,0.014,0.014,0.2,0.003,0.016,23,91.2,CALM,0.1
H02,2014,8,28,4,0,0.021,0.008,0.2,0.008,0.018,22.9,91.3,CALM,0.1
H02,2014,8,28,5,0,0.021,0.006,0.3,0.016,0.018,23,93.9,CALM,0.1
H02,2014,8,28,6,0,0.02,0.007,0.3,0.012,0.015,22.5,95.2,CALM,0.2
H02,2014,8,28,7,0,0.028,0.005,0.3,0.033,0.022,22.8,95.1,WSW,0.5
H02,2014,8,28,8,0,0.022,0.005,0.4,0.029,0.025,22.6,96.2,WSW,0.8
H02,2014,8,28,9,0,0.022,0.007,0.4,0.029,0.023,22.7,94.8,SSW,0.3
H02,2014,8,28,10,0.001,0.021,0.005,0.4,0.043,0.024,23.4,88.6,NE,0.6
H02,2014,8,28,11,0.001,0.016,0.01,0.3,0.024,0.022,23.6,84.7,NE,0.8
H02,2014,8,28,12,0,0.02,0.014,0.3,0.018,0.019,25.6,79,SSW,0.7
H02,2014,8,28,13,0,0.034,0.022,0.3,0.011,0.018,26.2,73.6,ENE,0.8
H02,2014,8,28,14,0,0.021,0.026,0.3,0.012,0.02,26,71.6,NE,0.7
H02,2014,8,28,15,0.001,0.019,0.02,0.3,0.015,0.026,26.1,69.4,NE,0.6
H02,2014,8,28,16,0.001,0.01,0.024,0.3,0.011,0.023,26.4,68.3,NE,0.7
H02,2014,8,28,17,0.001,0.009,0.018,0.3,0.016,0.03,25.7,67.7,NE,0.5
H02,2014,8,28,18,0.001,0.015,0.017,0.4,0.014,0.032,25.1,71.4,NNE,0.4
H02,2014,8,28,19,0.001,0.023,0.012,0.4,0.017,0.035,23.9,78.6,CALM,0.2
H02,2014,8,28,20,0.001,0.023,0.007,0.4,0.012,0.031,23.3,83.6,NE,0.4
H02,2014,8,28,21,0,0.027,0.002,0.5,0.024,0.029,22,90,NNE,0.6
H02,2014,8,28,22,0,0.024,0.001,0.5,0.027,0.021,21.3,92.2,NNE,0.3
H02,2014,8,28,23,0,0.019,0.001,0.5,0.022,0.018,20.7,92.5,NNE,0.8
H02,2014,8,28,24,0,0.022,0.001,0.4,0.02,0.015,20.2,95.5,CALM,0.2
H02,2014,8,29,1,0,0.027,0.001,0.4,0.033,0.013,19.7,96.4,CALM,0.2
H02,2014,8,29,2,0,0.027,0.001,0.5,0.021,0.011,19.5,96,NE,0.5
H02,2014,8,29,3,0,0.026,0.001,0.3,0.025,0.011,19.5,95.4,ENE,0.5
H02,2014,8,29,4,0,0.026,0.001,0.3,0.027,0.01,19.8,94.5,NE,0.4
H02,2014,8,29,5,0,0.032,0.001,0.4,0.044,0.013,19.9,94.5,ENE,0.6
H02,2014,8,29,6,0.001,0.022,0.001,0.4,0.051,0.014,20.4,93.6,CALM,0.2
H02,2014,8,29,7,0.001,0.025,0.002,0.4,0.036,0.013,21,90.8,E,1
H02,2014,8,29,8,0.001,0.027,0.002,0.4,0.027,0.014,21.7,85.8,NE,0.3
H02,2014,8,29,9,0.002,0.026,0.006,0.3,0.018,0.013,23,82.1,ENE,0.6
H02,2014,8,29,10,0.002,0.026,0.01,0.3,0.022,0.015,24.4,78.2,WSW,0.5
H02,2014,8,29,11,0.001,0.029,0.022,0.3,0.01,0.014,25.5,66.7,SW,0.9
H02,2014,8,29,12,0.001,0.015,0.032,0.3,0.011,0.014,26.3,65.2,SW,1.6
H02,2014,8,29,13,0,0.023,0.04,0.3,0.006,0.015,27,64.2,SW,2.1
H02,2014,8,29,14,0,0.025,0.048,0.3,0.005,0.015,26.1,68.4,SW,2.6
H02,2014,8,29,15,0.001,0.012,0.045,0.3,0.004,0.014,26.3,67.4,SW,1.6
H02,2014,8,29,16,0.001,0.025,0.041,0.2,0.006,0.017,26.1,68.4,SW,1.9
H02,2014,8,29,17,0,0.017,0.032,0.3,0.011,0.018,22.3,88.9,ENE,1.9
H02,2014,8,29,18,0,0.012,0.041,0.2,0.002,0.007,20.7,93.2,ENE,2.7
H02,2014,8,29,19,0,0.014,0.034,0.2,0.002,0.007,21,93,ENE,1.6
H02,2014,8,29,20,0,0.014,0.031,0.2,0.003,0.01,20.8,92.3,ENE,1.4
H02,2014,8,29,21,0,0.011,0.035,0.2,0.002,0.006,20.4,92.4,ENE,1.7
H02,2014,8,29,22,0,0.008,0.034,0.2,0.003,0.009,20.1,96.5,CALM,0.1
H02,2014,8,29,23,0,0.016,0.027,0.2,0.005,0.011,19.8,98.8,CALM,0.2
H02,2014,8,29,24,0,0.009,0.034,0.2,0,0.004,20,94.6,ENE,1.4
H02,2014,8,30,1,0,0.009,0.034,0.2,0.001,0.005,19.8,95.1,E,1.3
H02,2014,8,30,2,0,0.006,0.036,0.2,0.001,0.003,19.7,95.4,ENE,1.3
H02,2014,8,30,3,0,0.007,0.034,0.2,0.001,0.005,19.8,95.9,ENE,0.9
H02,2014,8,30,4,0,0.01,0.021,0.2,0.004,0.013,20.1,96.5,NNE,0.3
H02,2014,8,30,5,0,0.02,0.011,0.2,0.007,0.013,20.3,96.1,NE,0.7
H02,2014,8,30,6,0.001,0.024,0.004,0.3,0.016,0.02,20.1,97.6,CALM,0.1
H02,2014,8,30,7,0.001,0.025,0.005,0.3,0.025,0.017,21.9,91,ENE,0.6
H02,2014,8,30,8,0.001,0.017,0.016,0.2,0.009,0.012,23.4,77.9,ENE,0.7
H02,2014,8,30,9,0.002,0.026,0.028,0.2,0.005,0.011,24.4,74.1,E,0.9
H02,2014,8,30,10,0.001,0.021,0.037,0.2,0.005,0.008,25.2,69.8,ENE,0.5
H02,2014,8,30,11,0.001,0.013,0.046,0.3,0.006,0.01,26.3,63.2,SW,1.7
H02,2014,8,30,12,0,0.018,0.054,0.3,0.005,0.011,28.7,57.1,SW,1.4
H02,2014,8,30,13,0,0.018,0.06,0.3,0.004,0.009,28.5,55.9,SW,2.7
H02,2014,8,30,14,0,0.019,0.058,0.3,0.007,0.01,29,52.4,WSW,2.7
H02,2014,8,30,15,0.003,0.019,0.059,0.3,0.005,0.011,28.3,58.3,SW,3.4
H02,2014,8,30,16,0.002,0.01,0.049,0.2,0.005,0.011,27.9,55.5,SW,2.7
H02,2014,8,30,17,0.001,0.01,0.045,0.2,0.004,0.011,26.1,62.3,SW,2.8
H02,2014,8,30,18,0.002,0.014,0.037,0.3,0.005,0.014,25.1,66.1,SW,1.7
H02,2014,8,30,19,0.003,0.006,0.032,0.3,0.005,0.017,24.3,73.6,SW,1.2
H02,2014,8,30,20,0,0.013,0.037,0.2,0.004,0.01,23.6,78.4,SW,0.6
H02,2014,8,30,21,0,0.014,0.038,0.2,0.001,0.007,22.7,83.1,SW,0.5
H02,2014,8,30,22,0,0.014,0.034,0.2,0.001,0.007,22.2,85.5,ENE,0.6
H02,2014,8,30,23,0,0.021,0.031,0.2,0.001,0.007,22.2,83.5,ENE,0.9
H02,2014,8,30,24,0,0.013,0.03,0.2,0.001,0.006,21,91,CALM,0
H02,2014,8,31,1,0,0.009,0.027,0.2,0.001,0.005,21.2,91.9,CALM,0.1
H02,2014,8,31,2,0,0.016,0.029,0.2,0,0.004,21.7,84.9,ENE,1.2
H02,2014,8,31,3,0,0.015,0.032,0.2,0,0.004,21.6,85,ENE,1.3
H02,2014,8,31,4,0,0.013,0.032,0.2,0,0.005,21.7,85.8,NE,0.9
H02,2014,8,31,5,0,0.011,0.027,0.2,0.001,0.006,21.6,86.3,ENE,0.6
H02,2014,8,31,6,0,0.017,0.023,0.2,0.001,0.008,21.5,89,CALM,0.2
H02,2014,8,31,7,0,0.021,0.025,0.2,0.003,0.008,22.8,83.8,ENE,0.5
H02,2014,8,31,8,0.001,0.017,0.031,0.3,0.001,0.004,24.1,76.8,NE,1.1
H02,2014,8,31,9,0.002,0.005,0.04,0.3,0.001,0.006,25.4,69,E,0.6
H02,2014,8,31,10,0.001,0.006,0.048,0.3,0.001,0.004,27,63.7,ESE,0.5
H02,2014,8,31,11,0.001,0.012,0.052,0.3,0.001,0.004,26.6,64.5,SW,1.1
H02,2014,8,31,12,0,0.01,0.052,0.2,0.001,0.003,28.6,60.7,SSE,0.5
H02,2014,8,31,13,0,0.01,0.052,0.2,0.001,0.002,28.8,54.8,WSW,1.3
H02,2014,8,31,14,0.003,0.028,0.058,0.5,0.001,0.01,27.2,64.6,SW,2.8
H02,2014,8,31,15,0.002,0.018,0.06,0.4,0.001,0.007,29.3,56,WSW,2.1
H02,2014,8,31,16,0.001,0.012,0.057,0.3,0.001,0.006,29.1,55.5,WSW,1.7
H02,2014,8,31,17,0.001,0.025,0.055,0.3,0.001,0.006,27.4,60.5,SW,2
H02,2014,8,31,18,0,0.012,0.047,0.2,0.001,0.006,25.5,65.1,SW,2.4
H02,2014,8,31,19,0,0.009,0.04,0.2,0.001,0.006,24.3,68.5,SW,1
H02,2014,8,31,20,0,0.009,0.033,0.2,0.001,0.008,22.9,76,WSW,0.5
H02,2014,8,31,21,0,0.006,0.027,0.2,0.001,0.01,22.8,80.2,E,0.5
H02,2014,8,31,22,0,0.008,0.019,0.3,0.001,0.011,22.7,83.5,CALM,0
H02,2014,8,31,23,0,0.019,0.017,0.3,0.001,0.01,22.6,83.4,WSW,0.3
H02,2014,8,31,24,0,0.019,0.015,0.3,0.004,0.012,21.2,94.9,WSW,0.6
H02,2014,9,1,1,0,0.012,0.021,0.2,0.002,0.009,20.9,97.1,ENE,0.8
H02,2014,9,1,2,0,0.015,0.019,0.2,0.003,0.01,21.2,98,CALM,0.2
H02,2014,9,1,3,0,0.009,0.011,0.2,0.007,0.012,20.9,97.6,E,1.1
H02,2014,9,1,4,0,0.01,0.007,0.2,0.006,0.011,21.2,98,CALM,0.1
H02,2014,9,1,5,0,0.016,0.006,0.2,0.016,0.015,21,98.3,CALM,0.2
H02,2014,9,1,6,0,0.024,0.005,0.3,0.021,0.014,21.2,96.2,NE,0.4
H02,2014,9,1,7,0,0.023,0.003,0.4,0.035,0.019,22.1,92.6,NNE,0.3
H02,2014,9,1,8,0.001,0.022,0.006,0.4,0.021,0.018,22.7,91.3,ENE,0.6
H02,2014,9,1,9,0.002,0.026,0.01,0.4,0.021,0.018,23.4,86.5,NE,1
H02,2014,9,1,10,0.001,0.016,0.013,0.4,0.016,0.019,22.7,93.3,NNE,0.4
H02,2014,9,1,11,0.001,0.028,0.009,0.4,0.027,0.025,22.2,96.3,ENE,0.4
H02,2014,9,1,12,0,0.023,0.01,0.3,0.029,0.025,21.9,96.8,NE,0.7
H02,2014,9,1,13,0,0.017,0.018,0.3,0.014,0.023,21.9,97.1,NE,0.8
H02,2014,9,1,14,0,0.016,0.017,0.3,0.019,0.027,22.4,96.5,ENE,0.7
H02,2014,9,1,15,0,0.018,0.016,0.3,0.013,0.021,22.4,97.7,SW,0.3
H02,2014,9,1,16,0,0.017,0.011,0.3,0.018,0.025,22.1,97.7,CALM,0.1
H02,2014,9,1,17,0,0.015,0.01,0.3,0.016,0.026,21.7,98.3,CALM,0.2
H02,2014,9,1,18,0,0.018,0.008,0.4,0.014,0.026,21.6,98.9,CALM,0.2
H02,2014,9,1,19,0,0.009,0.008,0.4,0.016,0.025,21.2,99.2,CALM,0
H02,2014,9,1,20,0,0.009,0.015,0.3,0.004,0.017,21,98.8,CALM,0.2
H02,2014,9,1,21,0,0.023,0.011,0.3,0.004,0.018,21.2,98.7,SW,0.6
H02,2014,9,1,22,0,0.026,0.009,0.3,0.005,0.021,21.2,99.2,CALM,0.1
H02,2014,9,1,23,0,0.018,0.006,0.4,0.003,0.02,21.3,99.2,E,0.5
H02,2014,9,1,24,0,0.027,0.004,0.3,0.01,0.018,21.1,99.2,SW,0.4
H02,2014,9,2,1,0,0.024,0.009,0.2,0.003,0.011,21.1,99.2,CALM,0
H02,2014,9,2,2,0,0.015,0.004,0.2,0.008,0.014,21,99.2,CALM,0.2
H02,2014,9,2,3,0,0.016,0.003,0.2,0.014,0.016,21,99.2,CALM,0.1
H02,2014,9,2,4,0,0.013,0.003,0.2,0.013,0.016,21.2,98.9,E,0.6
H02,2014,9,2,5,0,0.02,0.002,0.3,0.025,0.018,21.3,98.1,CALM,0.2
H02,2014,9,2,6,0,0.017,0.002,0.3,0.018,0.016,21.4,97.2,CALM,0.1
H02,2014,9,2,7,0.001,0.024,0.003,0.3,0.04,0.017,22.3,92.7,ENE,0.3
H02,2014,9,2,8,0.001,0.016,0.009,0.3,0.016,0.013,23.6,81.1,ENE,1.3
H02,2014,9,2,9,0,0.017,0.014,0.2,0.015,0.012,24.9,74.4,ENE,0.9
H02,2014,9,2,10,0,0.019,0.02,0.2,0.012,0.012,26.4,65.7,E,1.3
H02,2014,9,2,11,0,0.016,0.031,0.2,0.007,0.011,28.2,62.2,SSW,0.8
H02,2014,9,2,12,0,0.017,0.041,0.2,0.005,0.011,29.3,58.5,SSW,1.4
H02,2014,9,2,13,0,0.011,0.057,0.2,0.003,0.011,30.8,54,SSW,0.7
H02,2014,9,2,14,0,0.012,0.066,0.2,0.004,0.012,30.9,48.8,SW,1.8
H02,2014,9,2,15,0.001,0.036,0.072,0.3,0.007,0.024,29.8,57.2,SW,1.4
H02,2014,9,2,16,0.002,0.048,0.079,0.4,0.006,0.026,27.9,65.8,SW,2.6
H02,2014,9,2,17,0.001,0.026,0.072,0.3,0.006,0.02,26.7,71.3,SW,2
H02,2014,9,2,18,0.001,0.031,0.061,0.3,0.005,0.018,25.5,73.9,WSW,1.4
H02,2014,9,2,19,0,0.022,0.044,0.3,0.004,0.016,24.5,76.6,SW,1.8
H02,2014,9,2,20,0.001,0.026,0.049,0.3,0.001,0.013,23.8,82.5,SW,2.3
H02,2014,9,2,21,0.001,0.021,0.044,0.3,0.001,0.012,23.1,85.4,SW,1
H02,2014,9,2,22,0.001,0.013,0.03,0.3,0.006,0.019,22.8,86.7,ENE,0.4
H02,2014,9,2,23,0,0.027,0.031,0.3,0.001,0.016,22.2,89.2,CALM,0.2
H02,2014,9,2,24,0,0.023,0.02,0.3,0.001,0.02,21.9,90.6,ENE,0.5
H02,2014,9,3,1,***,0.024,0.013,***,***,***,20.9,94.7,NNE,0.4
H02,2014,9,3,2,0,0.028,0.005,0.3,0.005,0.014,20.5,95.1,ENE,0.8
H02,2014,9,3,3,0,0.024,0.005,0.3,0.009,0.013,20.2,96.1,NE,0.3
H02,2014,9,3,4,0,0.027,0.003,0.3,0.017,0.017,20.5,93.4,ENE,0.6
H02,2014,9,3,5,0,0.02,0.004,0.3,0.017,0.018,20.4,93.2,ENE,0.4
H02,2014,9,3,6,0,0.015,0.004,0.3,0.021,0.021,21.3,88.7,NE,0.5
H02,2014,9,3,7,0,0.023,0.008,0.3,0.011,0.021,22.2,84.6,ENE,1.3
H02,2014,9,3,8,0.001,0.017,0.015,0.3,0.008,0.019,24.5,73.8,ENE,0.8
H02,2014,9,3,9,0.001,0.01,0.034,0.2,0.009,0.012,25.4,67.4,SW,1.4
H02,2014,9,3,10,0.001,0.009,0.037,0.3,0.015,0.018,27,60.6,SW,2.5
H02,2014,9,3,11,0,0.019,0.048,0.2,0.009,0.011,29.1,52.9,SW,2.1
H02,2014,9,3,12,0,0.008,0.05,0.2,0.012,0.013,29,53.7,SW,2.3
H02,2014,9,3,13,0,0.022,0.054,0.2,0.008,0.012,28.7,54.1,WSW,2.2
H02,2014,9,3,14,0,0.023,0.051,0.2,0.012,0.015,28.3,56.4,SW,1.8
H02,2014,9,3,15,0,0.026,0.043,0.2,0.011,0.016,28.2,58.3,SW,1.6
H02,2014,9,3,16,0,0.014,0.041,0.2,0.015,0.018,26.9,58.6,SW,2.2
H02,2014,9,3,17,0,0.02,0.037,0.3,0.019,0.022,26.2,58,SW,1.2
H02,2014,9,3,18,0,0.01,0.036,0.2,0.01,0.018,25.6,58.2,SW,1.3
H02,2014,9,3,19,0,0.011,0.034,0.3,0.006,0.016,25.2,60.5,SW,0.7
H02,2014,9,3,20,0,0.012,0.034,0.2,0.005,0.013,24.8,66.3,SW,0.7
H02,2014,9,3,21,0,0.021,0.036,0.2,0.002,0.008,24.5,67.9,SW,0.6
H02,2014,9,3,22,0,0.014,0.036,0.2,0.003,0.006,24.3,68.5,WSW,0.4
H02,2014,9,3,23,0,0.015,0.038,0.2,0.001,0.005,24.1,70,SSW,0.4
H02,2014,9,3,24,0,0.012,0.038,0.2,0.001,0.005,23.7,71.5,CALM,0.2
H02,2014,9,4,1,0,0.014,0.036,0.2,0.002,0.007,23.8,73,ENE,0.7
H02,2014,9,4,2,0,0.015,0.034,0.2,0.004,0.008,23.6,74.4,ENE,0.5
H02,2014,9,4,3,0,0.02,0.03,0.2,0.003,0.011,23.1,75.5,ENE,1.2
H02,2014,9,4,4,0,0.018,0.03,0.2,0.001,0.012,22.4,84.6,ENE,1.3
H02,2014,9,4,5,0,0.016,0.023,0.2,0.002,0.013,22.2,85.7,ENE,1.1
H02,2014,9,4,6,0,0.019,0.018,0.2,0.003,0.014,22.7,82.4,ENE,1.3
H02,2014,9,4,7,0,0.017,0.016,0.2,0.013,0.023,23.4,78.4,ENE,0.9
H02,2014,9,4,8,0,0.022,0.019,0.3,0.011,0.019,24.5,74.5,SW,0.8
H02,2014,9,4,9,0.001,0.014,0.022,0.3,0.015,0.018,24.5,74.7,W,0.5
H02,2014,9,4,10,0.001,0.019,0.019,0.2,0.022,0.024,24.8,73.1,NE,0.4
H02,2014,9,4,11,0,0.024,0.031,0.2,0.007,0.013,23.7,83.5,ENE,1.1
H02,2014,9,4,12,0.001,0.024,0.024,0.3,0.017,0.024,24.2,80.1,NE,0.5
H02,2014,9,4,13,0,0.032,0.022,0.3,0.012,0.022,23.7,87.3,NE,0.5
H02,2014,9,4,14,0,0.017,0.02,0.2,0.013,0.026,22.6,94.8,ENE,0.8
H02,2014,9,4,15,0,0.032,0.019,0.3,0.013,0.027,23,91,ENE,1.1
H02,2014,9,4,16,0,0.022,0.024,0.3,0.009,0.025,23.7,88.5,ENE,0.7
H02,2014,9,4,17,0,0.037,0.016,0.3,0.016,0.028,23.3,92.9,WNW,0.3
H02,2014,9,4,18,0,0.024,0.012,0.4,0.015,0.03,22.8,97.4,CALM,0
H02,2014,9,4,19,0,0.025,0.012,0.4,0.008,0.026,22.7,97.6,CALM,0.1
H02,2014,9,4,20,0,0.031,0.012,0.4,0.004,0.021,22.7,98.6,CALM,0.2
H02,2014,9,4,21,0,0.024,0.011,0.3,0.003,0.018,22.8,98.4,CALM,0.2
H02,2014,9,4,22,0,0.029,0.012,0.3,0.002,0.015,22.5,99.2,CALM,0
H02,2014,9,4,23,0,0.021,0.009,0.3,0.004,0.018,22.5,99.1,CALM,0.2
H02,2014,9,4,24,0,0.023,0.016,0.2,0.002,0.01,22,98.4,WSW,0.5
H02,2014,9,5,1,0,0.017,0.023,0.2,0.003,0.005,22,99.1,ENE,0.7
H02,2014,9,5,2,0,0.013,0.025,0.1,0.001,0.007,22.2,99,NE,0.4
H02,2014,9,5,3,0,0.008,0.022,0.1,0.006,0.01,22.4,98.4,CALM,0.2
H02,2014,9,5,4,0,0.008,0.021,0.1,0.005,0.009,22.8,98.1,ENE,0.6
H02,2014,9,5,5,0,0.01,0.017,0.1,0.008,0.01,23.3,97.5,ENE,0.5
H02,2014,9,5,6,0,0.008,0.016,0.1,0.011,0.008,23.3,96.8,ENE,1.3
H02,2014,9,5,7,0,0.014,0.011,0.2,0.014,0.01,24,96.3,ENE,1.2
H02,2014,9,5,8,0,0.013,0.01,0.2,0.015,0.008,25.1,89.5,ENE,0.8
H02,2014,9,5,9,0,0.015,0.008,0.2,0.026,0.009,25,91.1,SW,0.8
H02,2014,9,5,10,0.001,0.02,0.005,0.3,0.053,0.015,25.8,94.8,SW,1.2
H02,2014,9,5,11,0.001,0.011,0.008,0.2,0.03,0.012,26.5,90.7,SW,1
H02,2014,9,5,12,0.001,0.014,0.007,0.2,0.031,0.013,27.3,85.5,SW,1
H02,2014,9,5,13,0,0.021,0.012,0.2,0.017,0.011,27.5,80.8,SW,1.1
H02,2014,9,5,14,0.001,0.018,0.014,0.2,0.027,0.016,28.9,77,WSW,0.4
H02,2014,9,5,15,0.001,0.035,0.012,0.3,0.033,0.031,27.9,78.8,WSW,0.3
H02,2014,9,5,16,0.001,0.034,0.014,0.3,0.031,0.033,27.8,81.4,NE,0.5
H02,2014,9,5,17,0.001,0.026,0.013,0.3,0.023,0.033,27.6,82.6,CALM,0.1
H02,2014,9,5,18,0.001,0.037,0.01,0.4,0.019,0.033,26.2,89,CALM,0.2
H02,2014,9,5,19,0.001,0.032,0.004,0.7,0.033,0.035,26.3,86.5,CALM,0.2
H02,2014,9,5,20,0,0.03,0.003,0.6,0.03,0.03,25.5,91.5,CALM,0
H02,2014,9,5,21,0,0.028,0.003,0.7,0.034,0.024,24.8,95.3,ENE,0.5
H02,2014,9,5,22,0,0.036,0.002,0.6,0.03,0.018,24.3,95.9,NNE,0.4
H02,2014,9,5,23,0,0.039,0.002,0.6,0.026,0.015,24,95.5,CALM,0.1
H02,2014,9,5,24,0,0.044,0.002,0.5,0.024,0.011,23.7,96.3,CALM,0.1
H02,2014,9,6,1,0,0.035,0.002,0.5,0.03,0.011,23.6,97.3,CALM,0.1
H02,2014,9,6,2,0,0.035,0.002,0.5,0.036,0.009,23.2,96.9,CALM,0.2
H02,2014,9,6,3,0,0.034,0.002,0.4,0.029,0.008,22.8,97.3,ENE,0.6
H02,2014,9,6,4,0,0.043,0.002,0.3,0.014,0.009,22.8,96.6,CALM,0
H02,2014,9,6,5,0,0.04,0.002,0.3,0.036,0.011,22.9,97.2,CALM,0.1
H02,2014,9,6,6,0.001,0.028,0.002,0.3,0.035,0.01,22.6,94.9,ENE,0.3
H02,2014,9,6,7,0.001,0.028,0.003,0.3,0.022,0.01,24.1,84.9,NE,0.6
H02,2014,9,6,8,0.001,0.029,0.007,0.2,0.012,0.008,25.5,80,ESE,0.4
H02,2014,9,6,9,0.001,0.019,0.012,0.2,0.01,0.008,28.5,67.1,ESE,0.4
H02,2014,9,6,10,0.001,0.022,0.018,0.2,0.011,0.011,29.9,63.6,S,0.4
H02,2014,9,6,11,0.001,0.017,0.032,0.2,0.004,0.008,30.3,54.9,SE,0.8
H02,2014,9,6,12,0.001,0.028,0.041,0.2,0.005,0.008,31.7,57.8,SSW,0.6
H02,2014,9,6,13,0.001,0.033,0.049,0.2,0.004,0.007,32.6,52.1,S,0.7
H02,2014,9,6,14,0.001,0.03,0.053,0.2,0.003,0.008,32,48.7,ENE,0.9
H02,2014,9,6,15,0.001,0.035,0.051,0.3,0.005,0.013,33.3,45,NE,1
H02,2014,9,6,16,0.001,0.041,0.052,0.3,0.008,0.015,32.4,47.8,E,1
H02,2014,9,6,17,0.001,0.039,0.044,0.3,0.006,0.024,29.6,61.8,SW,0.6
H02,2014,9,6,18,0.003,0.049,0.043,0.3,0.003,0.018,26.9,79.8,SW,4.1
H02,2014,9,6,19,0.001,0.05,0.034,0.3,0.002,0.011,24.5,95.7,SW,1.4
H02,2014,9,6,20,0,0.026,0.035,0.3,0.001,0.012,22.4,96.7,SE,0.4
H02,2014,9,6,21,0,0.018,0.041,0.3,0,0.008,21.5,99.2,E,0.4
H02,2014,9,6,22,0,0.017,0.039,0.3,0,0.007,21.1,99,NE,0.9
H02,2014,9,6,23,0,0.023,0.038,0.3,0,0.007,21.1,99.2,E,0.3
H02,2014,9,6,24,0,0.024,0.035,0.3,0,0.007,21,99.2,CALM,0
H02,2014,9,7,1,0,0.02,0.033,0.3,0.001,0.007,21.1,98.8,ENE,0.4
H02,2014,9,7,2,0,0.017,0.03,0.3,0,0.006,21.2,99.2,CALM,0.1
H02,2014,9,7,3,0,0.021,0.03,0.3,0.001,0.006,20.9,99.2,CALM,0
H02,2014,9,7,4,0,0.017,0.029,0.3,0,0.005,20.9,99.2,CALM,0
H02,2014,9,7,5,0,0.022,0.025,0.3,0.001,0.007,21.4,98.2,NE,0.4
H02,2014,9,7,6,0.001,0.02,0.022,0.3,0.001,0.009,21.2,99.2,CALM,0.1
H02,2014,9,7,7,0,0.027,0.018,0.3,0.002,0.01,21.8,99.2,CALM,0
H02,2014,9,7,8,0.001,0.03,0.017,0.3,0.003,0.008,22.4,98.4,NE,0.4
H02,2014,9,7,9,0.001,0.027,0.02,0.3,0.003,0.006,24.6,89.8,CALM,0.2
H02,2014,9,7,10,0.001,0.024,0.031,0.3,0.001,0.004,25.7,76.3,E,0.4
H02,2014,9,7,11,0,0.02,0.038,0.3,0.001,0.003,27.5,71.1,SW,0.8
H02,2014,9,7,12,0.001,0.013,0.046,0.3,0.001,0.003,28.9,60.9,WSW,0.9
H02,2014,9,7,13,0,0.023,0.053,0.2,0,0.003,30.5,54.5,SW,2.1
H02,2014,9,7,14,0,0.038,0.053,0.2,0.001,0.002,31.1,49,E,0.7
H02,2014,9,7,15,0,0.021,0.056,0.2,0.001,0.003,30.9,54.3,SW,1.8
H02,2014,9,7,16,0.001,0.017,0.065,0.3,0.001,0.005,30.2,57.6,SW,1.8
H02,2014,9,7,17,0.001,0.026,0.057,0.3,0.001,0.006,28.6,59,WSW,1.2
H02,2014,9,7,18,0.001,0.018,0.044,0.4,0.002,0.011,26.8,66.8,WSW,0.7
H02,2014,9,7,19,0.001,0.022,0.035,0.4,0.002,0.011,26.5,71,WSW,0.5
H02,2014,9,7,20,0.001,0.025,0.033,0.3,0.002,0.011,25,80.5,SW,1
H02,2014,9,7,21,0.001,0.011,0.031,0.2,0.001,0.007,24.3,84.4,WSW,1
H02,2014,9,7,22,0.001,0.019,0.025,0.2,0.003,0.007,23.4,88.7,SSW,0.3
H02,2014,9,7,23,0,0.013,0.021,0.2,0.004,0.007,22.7,91.3,SW,0.4
H02,2014,9,7,24,0,0.026,0.014,0.2,0.002,0.008,21.7,95.2,CALM,0
H02,2014,9,8,1,0,0.025,0.007,0.3,0.006,0.012,22.8,90.7,ENE,0.5
H02,2014,9,8,2,0,0.023,0.011,0.3,0.002,0.009,22.9,89.8,ENE,0.4
H02,2014,9,8,3,0,0.02,0.009,0.3,0.007,0.011,22.6,91.9,SW,0.5
H02,2014,9,8,4,0,0.02,0.011,0.2,0.008,0.008,22.2,91.9,ENE,0.5
H02,2014,9,8,5,0,0.025,0.009,0.3,0.005,0.009,22.2,91.7,E,0.6
H02,2014,9,8,6,0,0.028,0.003,0.3,0.024,0.014,22.1,93.4,E,0.9
H02,2014,9,8,7,0,0.029,0.003,0.4,0.027,0.015,23.1,89.2,ENE,0.5
H02,2014,9,8,8,0.001,0.022,0.006,0.3,0.017,0.016,23.7,84.8,ENE,1.1
H02,2014,9,8,9,0.001,0.031,0.009,0.3,0.016,0.016,24.3,80.4,N,0.4
H02,2014,9,8,10,0.001,0.026,0.018,0.3,0.016,0.017,24.6,79.1,SW,0.8
H02,2014,9,8,11,0.001,0.028,0.019,0.3,0.022,0.02,25.2,77.6,SW,1.5
H02,2014,9,8,12,0.001,0.035,0.023,0.3,0.026,0.02,26,69.9,SW,1
H02,2014,9,8,13,0,0.016,0.029,0.2,0.008,0.013,26.6,64,SW,2
H02,2014,9,8,14,0,0.021,0.032,0.2,0.017,0.014,27,60.7,SW,1.6
H02,2014,9,8,15,0,0.014,0.033,0.2,0.018,0.015,28.7,54.3,SW,2.1
H02,2014,9,8,16,0,0.018,0.035,0.2,0.011,0.016,26.9,57.8,SW,2.1
H02,2014,9,8,17,0,0.02,0.031,0.2,0.016,0.022,25.1,60.8,WSW,1.2
H02,2014,9,8,18,0,0.019,0.028,0.3,0.014,0.025,23.4,62.4,WSW,1
H02,2014,9,8,19,0,0.011,0.02,0.4,0.017,0.031,21.4,74.4,WSW,0.6
H02,2014,9,8,20,0.001,0.011,0.019,0.4,0.008,0.025,21.2,78.9,SW,0.9
H02,2014,9,8,21,0.001,0.017,0.023,0.4,0.005,0.022,20.4,80.2,WSW,0.5
H02,2014,9,8,22,0.001,0.01,0.016,0.3,0.009,0.025,20,84.9,NE,0.5
H02,2014,9,8,23,0.001,0.01,0.009,0.3,0.004,0.024,19.7,87.4,NE,0.6
H02,2014,9,8,24,0.001,0.022,0.008,0.3,0.003,0.019,20,86.6,CALM,0
H02,2014,9,9,1,***,0.017,0.01,***,***,***,20,88,NE,0.6
H02,2014,9,9,2,0.001,0.023,0.004,0.4,0.005,0.021,19,92.3,NE,0.6
H02,2014,9,9,3,0.001,0.019,0.002,0.4,0.016,0.02,18.5,93.4,NE,0.7
H02,2014,9,9,4,0.001,0.025,0.002,0.4,0.021,0.02,18.2,93.9,NE,0.3
H02,2014,9,9,5,0.001,0.016,0.002,0.3,0.028,0.025,18,93.8,NE,0.5
H02,2014,9,9,6,0.001,0.014,0.002,0.4,0.048,0.029,18.1,94.1,NNE,0.4
H02,2014,9,9,7,0.002,0.028,0.005,0.4,0.029,0.024,20.9,82.2,E,1.2
H02,2014,9,9,8,0.001,0.019,0.016,0.3,0.011,0.017,24.1,65.3,ENE,1.2
H02,2014,9,9,9,0,0.015,0.026,0.2,0.01,0.014,25.6,55,NE,1.1
H02,2014,9,9,10,0.001,0.022,0.029,0.2,0.013,0.016,26.7,50.2,ENE,1.2
H02,2014,9,9,11,0,0.016,0.036,0.2,0.011,0.016,28.2,45.8,E,0.9
H02,2014,9,9,12,0,0.013,0.046,0.2,0.006,0.014,30,40,SSE,0.9
H02,2014,9,9,13,0,0.012,0.052,0.2,0.004,0.012,31.1,36.6,ENE,1.6
H02,2014,9,9,14,0,0.015,0.046,0.2,0.011,0.017,32.1,42.7,SSW,0.9
H02,2014,9,9,15,0,0.014,0.044,0.2,0.012,0.019,32.3,42.5,SSE,0.9
H02,2014,9,9,16,0,0.023,0.035,0.2,0.022,0.024,31.6,42.4,SW,1.3
H02,2014,9,9,17,0,0.027,0.033,0.3,0.015,0.023,28,55.4,SW,0.8
H02,2014,9,9,18,0,0.014,0.03,0.3,0.011,0.02,26.7,56.8,SSW,0.8
H02,2014,9,9,19,0,0.016,0.025,0.4,0.007,0.021,25.5,59.8,S,0.4
H02,2014,9,9,20,0,0.028,0.021,0.3,0.008,0.021,24.6,63.2,NE,0.6
H02,2014,9,9,21,0.001,0.024,0.015,0.4,0.007,0.025,22.4,75.5,SW,0.6
H02,2014,9,9,22,0,0.022,0.008,0.4,0.006,0.025,21.3,81.5,CALM,0.2
H02,2014,9,9,23,0,0.023,0.006,0.4,0.005,0.022,21.3,82.4,CALM,0.2
H02,2014,9,9,24,0,0.025,0.003,0.4,0.006,0.022,20.4,88.8,CALM,0
H02,2014,9,10,1,0,0.032,0.003,0.4,0.009,0.021,20.5,88.4,CALM,0.2
H02,2014,9,10,2,0,0.022,0.003,0.3,0.01,0.018,19.8,92.8,CALM,0.2
H02,2014,9,10,3,0,0.019,0.002,0.3,0.017,0.025,20.2,90.2,ENE,0.7
H02,2014,9,10,4,0,0.034,0.001,0.3,0.028,0.02,20.1,92.3,NE,0.4
H02,2014,9,10,5,0,0.031,0.001,0.3,0.039,0.021,19.8,92.4,NE,0.4
H02,2014,9,10,6,0,0.034,0.001,0.4,0.065,0.024,19.8,92.5,ENE,0.9
H02,2014,9,10,7,0,0.038,0.002,0.4,0.061,0.026,21.6,89.4,CALM,0.2
H02,2014,9,10,8,0,0.03,0.016,0.3,0.012,0.015,23.9,75.5,SW,0.6
H02,2014,9,10,9,0.001,0.03,0.029,0.3,0.009,0.011,24.5,72.1,SW,1.1
H02,2014,9,10,10,0.001,0.034,0.025,0.3,0.027,0.023,26.3,64.2,W,0.8
H02,2014,9,10,11,0.001,0.029,0.046,0.3,0.007,0.016,27,60.4,WSW,0.9
H02,2014,9,10,12,0.001,0.033,0.054,0.4,0.013,0.024,28.2,54.9,SW,1.4
H02,2014,9,10,13,0.002,0.025,0.059,0.4,0.011,0.019,29.5,51,SW,1.2
H02,2014,9,10,14,0.001,0.032,0.064,0.3,0.01,0.022,28.9,50,WSW,1.9
H02,2014,9,10,15,0.001,0.032,0.06,0.3,0.009,0.02,28.7,56.2,WSW,1
H02,2014,9,10,16,0.001,0.031,0.049,0.3,0.013,0.027,28,57.1,SW,1.9
H02,2014,9,10,17,0.001,0.026,0.047,0.3,0.01,0.025,27.4,61.8,SW,1.3
H02,2014,9,10,18,0,0.023,0.045,0.3,0.004,0.021,26.4,66.2,SW,1.8
H02,2014,9,10,19,0,0.034,0.034,0.4,0.009,0.022,25.5,75.3,SW,0.4
H02,2014,9,10,20,0,0.024,0.035,0.3,0.004,0.016,24.5,66.4,E,0.9
H02,2014,9,10,21,0,0.018,0.048,0.2,0.001,0.007,23.4,62.5,ENE,1.8
H02,2014,9,10,22,0,0.022,0.045,0.2,0,0.007,22.9,68.6,ENE,0.8
H02,2014,9,10,23,0,0.021,0.038,0.3,0,0.012,22.9,66.6,ENE,1.4
H02,2014,9,10,24,0,0.025,0.029,0.3,0.001,0.012,22.1,75.3,ENE,1.4
H02,2014,9,11,1,0,0.025,0.022,0.3,0.004,0.013,21.9,79.6,ENE,1
H02,2014,9,11,2,0,0.019,0.028,0.2,0.002,0.008,21.5,82.8,NE,0.7
H02,2014,9,11,3,0,0.024,0.02,0.2,0.006,0.016,20.6,91.4,ENE,0.5
H02,2014,9,11,4,0,0.019,0.016,0.3,0.01,0.025,20.6,88,ENE,1.9
H02,2014,9,11,5,0,0.024,0.01,0.3,0.015,0.026,20,94.2,SW,0.3
H02,2014,9,11,6,0,0.024,0.006,0.3,0.029,0.029,20.1,90.7,NNE,0.3
H02,2014,9,11,7,0,0.028,0.007,0.3,0.023,0.025,20.7,89.7,WSW,0.5
H02,2014,9,11,8,0,0.035,0.006,0.4,0.022,0.023,21.4,87.3,SW,1.7
H02,2014,9,11,9,0,0.028,0.014,0.4,0.031,0.024,22.7,78.9,SW,1.6
H02,2014,9,11,10,0,0.013,0.028,0.3,0.029,0.021,23.9,71.6,SW,2.8
H02,2014,9,11,11,0,0.021,0.038,0.2,0.023,0.02,25.8,65,SW,1.4
H02,2014,9,11,12,0,0.015,0.042,0.2,0.022,0.022,26.3,61.3,WSW,1
H02,2014,9,11,13,0,0.024,0.053,0.2,0.009,0.014,28.6,57.3,SW,1.5
H02,2014,9,11,14,0,0.033,0.05,0.2,0.016,0.024,24.5,72.8,WSW,1.7
H02,2014,9,11,15,0,0.027,0.03,0.3,0.038,0.041,21.5,96.9,ENE,0.3
H02,2014,9,11,16,0.001,0.027,0.029,0.3,0.031,0.037,25,86,WSW,1.1
H02,2014,9,11,17,0.002,0.034,0.023,0.5,0.037,0.047,23.6,83.9,WSW,0.6
H02,2014,9,11,18,0.001,0.019,0.031,0.4,0.01,0.029,19.1,91,WSW,2.1
H02,2014,9,11,19,0,0.024,0.037,0.3,0.009,0.021,19,93.4,E,2
H02,2014,9,11,20,0,0.01,0.032,0.3,0.006,0.018,18.9,98.8,W,0.6
H02,2014,9,11,21,0,0.009,0.025,0.4,0.005,0.02,18,99.2,CALM,0.2
H02,2014,9,11,22,0,0.01,0.017,0.3,0.003,0.021,17.9,99.2,ENE,1
H02,2014,9,11,23,0,0.026,0.012,0.4,0.003,0.016,17.8,99.2,CALM,0.2
H02,2014,9,11,24,0,0.021,0.006,0.4,0.009,0.018,17.4,99.2,CALM,0.2
H02,2014,9,12,1,0,0.02,0.005,0.4,0.006,0.017,17.1,99.2,NE,0.3
H02,2014,9,12,2,0,0.012,0.009,0.3,0.005,0.014,16.7,99.2,NE,0.7
H02,2014,9,12,3,0,0.025,0.007,0.2,0.014,0.018,16.3,99.2,NE,0.4
H02,2014,9,12,4,0,0.027,0.004,0.3,0.022,0.021,16,98.9,NE,0.7